| time (UTC) | temp F | wind direction | speed MPH | gust MPH | rain 1hr in | rain 24hr in | rain mn in | humidity % | barometer mb |
| 20260508084827 | 57 | 71 | 4.0 | 10.0 | 0.00 | 0.00 | 0.00 | 31 | 1026.1 |
| 20260508083827 | 57 | 288 | 2.0 | 11.0 | 0.00 | 0.00 | 0.00 | 30 | 1026.1 |
| 20260508082824 | 57 | 261 | 5.0 | 12.0 | 0.00 | 0.00 | 0.00 | 31 | 1026.1 |
| 20260508081823 | 57 | 344 | 3.0 | 12.0 | 0.00 | 0.00 | 0.00 | 32 | 1026.2 |
| 20260508080822 | 57 | 283 | 2.0 | 12.0 | 0.00 | 0.00 | 0.00 | 33 | 1026.1 |
| 20260508075819 | 55 | 65 | 4.0 | 12.0 | 0.00 | 0.00 | 0.00 | 36 | 1026.1 |
| 20260508074819 | 56 | 285 | 5.0 | 9.0 | 0.00 | 0.00 | 0.00 | 35 | 1026.0 |
| 20260508073819 | 56 | 113 | 5.0 | 10.0 | 0.00 | 0.00 | 0.00 | 35 | 1026.0 |
| 20260508072821 | 55 | 72 | 6.0 | 11.0 | 0.00 | 0.00 | 0.00 | 36 | 1026.0 |
| 20260508071819 | 54 | 259 | 3.0 | 6.0 | 0.00 | 0.00 | 0.00 | 37 | 1025.9 |
| 20260508070819 | 54 | 93 | 2.0 | 10.0 | 0.00 | 0.00 | 0.00 | 38 | 1025.8 |
| 20260508065818 | 53 | 130 | 4.0 | 7.0 | 0.00 | 0.00 | 0.00 | 39 | 1025.7 |
| 20260508064819 | 53 | 90 | 4.0 | 7.0 | 0.00 | 0.00 | 0.00 | 39 | 1025.6 |
| 20260508063818 | 53 | 281 | 4.0 | 7.0 | 0.00 | 0.00 | 0.00 | 40 | 1025.6 |
| 20260508062817 | 52 | 272 | 4.0 | 7.0 | 0.00 | 0.00 | 0.00 | 41 | 1025.5 |
| 20260508061817 | 52 | 68 | 4.0 | 11.0 | 0.00 | 0.00 | 0.00 | 41 | 1025.5 |
| 20260508060817 | 52 | 281 | 5.0 | 9.0 | 0.00 | 0.00 | 0.00 | 43 | 1025.3 |
| 20260508055817 | 51 | 63 | 2.0 | 5.0 | 0.00 | 0.00 | 0.00 | 41 | 1025.2 |
| 20260508054817 | 51 | 110 | 3.0 | 5.0 | 0.00 | 0.00 | 0.00 | 45 | 1025.1 |
| 20260508053804 | 50 | 85 | 0.0 | 5.0 | 0.00 | 0.00 | 0.00 | 49 | 1025.0 |
| 20260508052803 | 48 | 76 | 1.0 | 5.0 | 0.00 | 0.00 | 0.00 | 53 | 1025.1 |
| 20260508051802 | 47 | 142 | 1.0 | 4.0 | 0.00 | 0.00 | 0.00 | 56 | 1024.9 |
| 20260508050803 | 46 | 272 | 1.0 | 2.0 | 0.00 | 0.00 | 0.00 | 59 | 1024.8 |
| 20260508045803 | 45 | 272 | 1.0 | 2.0 | 0.00 | 0.00 | 0.00 | 61 | 1024.7 |
| 20260508044802 | 44 | 272 | 0.0 | 2.0 | 0.00 | 0.00 | 0.00 | 62 | 1024.6 |
| 20260508043802 | 42 | 272 | 1.0 | 2.0 | 0.00 | 0.00 | 0.00 | 67 | 1024.6 |
| 20260508042801 | 40 | 272 | 0.0 | 0.0 | 0.00 | 0.00 | 0.00 | 71 | 1024.6 |
| 20260508041800 | 38 | 272 | 0.0 | 0.0 | 0.00 | 0.00 | 0.00 | 75 | 1024.5 |
| 20260508040758 | 36 | 272 | 0.0 | 0.0 | 0.00 | 0.00 | 0.00 | 78 | 1024.4 |
| 20260508035758 | 33 | 272 | 0.0 | 1.0 | 0.00 | 0.00 | 0.00 | 83 | 1024.3 |
| 20260508034757 | 30 | 272 | 0.0 | 0.0 | 0.00 | 0.00 | 0.00 | 88 | 1024.2 |
| 20260508033759 | 28 | 272 | 0.0 | 0.0 | 0.00 | 0.00 | 0.00 | 89 | 1024.1 |
| 20260508032756 | 27 | 272 | 0.0 | 0.0 | 0.00 | 0.00 | 0.00 | 89 | 1024.0 |
| 20260508031756 | 27 | 272 | 0.0 | 0.0 | 0.00 | 0.00 | 0.00 | 88 | 1023.9 |
| 20260508030757 | 27 | 272 | 0.0 | 0.0 | 0.00 | 0.00 | 0.00 | 87 | 1023.9 |
| 20260508025757 | 27 | 272 | 0.0 | 0.0 | 0.00 | 0.00 | 0.00 | 87 | 1023.8 |
| 20260508024751 | 27 | 272 | 0.0 | 0.0 | 0.00 | 0.00 | 0.00 | 87 | 1023.7 |
| 20260508023750 | 27 | 272 | 0.0 | 0.0 | 0.00 | 0.00 | 0.00 | 85 | 1023.6 |
| 20260508022749 | 27 | 272 | 0.0 | 0.0 | 0.00 | 0.00 | 0.00 | 85 | 1023.5 |
| 20260508021748 | 28 | 272 | 0.0 | 0.0 | 0.00 | 0.00 | 0.00 | 85 | 1023.2 |
| 20260508020751 | 28 | 272 | 0.0 | 0.0 | 0.00 | 0.00 | 0.00 | 84 | 1023.1 |
| 20260508015746 | 28 | 272 | 0.0 | 0.0 | 0.00 | 0.00 | 0.00 | 83 | 1022.9 |
| 20260508014745 | 28 | 272 | 0.0 | 0.0 | 0.00 | 0.00 | 0.00 | 83 | 1022.9 |
| 20260508013744 | 29 | 272 | 0.0 | 1.0 | 0.00 | 0.00 | 0.00 | 83 | 1022.7 |
| 20260508012745 | 29 | 272 | 0.0 | 0.0 | 0.00 | 0.00 | 0.00 | 83 | 1022.6 |
| 20260508011744 | 29 | 272 | 0.0 | 2.0 | 0.00 | 0.00 | 0.00 | 82 | 1022.6 |
| 20260508010742 | 29 | 272 | 0.0 | 2.0 | 0.00 | 0.00 | 0.00 | 83 | 1022.4 |
| 20260508005743 | 30 | 272 | 0.0 | 1.0 | 0.00 | 0.00 | 0.00 | 82 | 1022.3 |
| 20260508004743 | 30 | 272 | 0.0 | 0.0 | 0.00 | 0.00 | 0.00 | 81 | 1022.1 |
| 20260508003744 | 30 | 272 | 0.0 | 1.0 | 0.00 | 0.00 | 0.00 | 81 | 1022.0 |
| 20260508002744 | 31 | 272 | 0.0 | 1.0 | 0.00 | 0.00 | 0.00 | 81 | 1021.9 |
| 20260508001742 | 31 | 272 | 0.0 | 1.0 | 0.00 | 0.00 | 0.00 | 80 | 1021.7 |
| 20260508000742 | 31 | 272 | 0.0 | 1.0 | 0.00 | 0.00 | 0.00 | 80 | 1021.6 |
| 20260507235742 | 31 | 272 | 0.0 | 2.0 | 0.00 | 0.00 | 0.00 | 79 | 1021.4 |
| 20260507234742 | 32 | 272 | 0.0 | 1.0 | 0.00 | 0.00 | 0.00 | 79 | 1021.3 |
| 20260507233741 | 32 | 272 | 0.0 | 2.0 | 0.00 | 0.00 | 0.00 | 77 | 1021.3 |
| 20260507232736 | 32 | 272 | 0.0 | 3.0 | 0.00 | 0.00 | 0.00 | 78 | 1021.1 |
| 20260507231737 | 32 | 258 | 0.0 | 3.0 | 0.00 | 0.00 | 0.00 | 77 | 1021.1 |
| 20260507230737 | 32 | 258 | 0.0 | 2.0 | 0.00 | 0.00 | 0.00 | 77 | 1021.0 |
| 20260507225732 | 33 | 258 | 0.0 | 1.0 | 0.00 | 0.00 | 0.00 | 77 | 1020.9 |
| 20260507224733 | 33 | 258 | 0.0 | 1.0 | 0.00 | 0.00 | 0.00 | 76 | 1020.8 |
| 20260507223731 | 33 | 258 | 0.0 | 0.0 | 0.00 | 0.00 | 0.00 | 76 | 1020.7 |
| 20260507222731 | 33 | 258 | 0.0 | 0.0 | 0.00 | 0.00 | 0.00 | 75 | 1020.6 |
| 20260507221731 | 34 | 258 | 0.0 | 0.0 | 0.00 | 0.00 | 0.00 | 74 | 1020.5 |
| 20260507220731 | 34 | 258 | 0.0 | 1.0 | 0.00 | 0.00 | 0.00 | 73 | 1020.3 |
| 20260507215731 | 34 | 258 | 0.0 | 0.0 | 0.00 | 0.00 | 0.00 | 72 | 1020.2 |
| 20260507214732 | 35 | 258 | 0.0 | 0.0 | 0.00 | 0.00 | 0.00 | 70 | 1020.1 |
| 20260507213731 | 35 | 258 | 0.0 | 1.0 | 0.00 | 0.00 | 0.00 | 69 | 1019.9 |
| 20260507212731 | 36 | 258 | 0.0 | 1.0 | 0.00 | 0.00 | 0.00 | 68 | 1019.9 |
| 20260507211731 | 36 | 258 | 0.0 | 1.0 | 0.00 | 0.00 | 0.00 | 67 | 1019.7 |
| 20260507210730 | 37 | 258 | 0.0 | 1.0 | 0.00 | 0.00 | 0.00 | 67 | 1019.6 |
| 20260507205732 | 38 | 258 | 0.0 | 1.0 | 0.00 | 0.00 | 0.00 | 65 | 1019.4 |
| 20260507204731 | 38 | 258 | 0.0 | 0.0 | 0.00 | 0.00 | 0.00 | 63 | 1019.2 |
| 20260507203730 | 39 | 258 | 0.0 | 0.0 | 0.00 | 0.00 | 0.00 | 61 | 1019.1 |
| 20260507202732 | 40 | 258 | 0.0 | 0.0 | 0.00 | 0.00 | 0.00 | 60 | 1019.0 |
| 20260507201730 | 40 | 258 | 0.0 | 2.0 | 0.00 | 0.00 | 0.00 | 58 | 1018.9 |
| 20260507200731 | 41 | 258 | 0.0 | 1.0 | 0.00 | 0.00 | 0.00 | 57 | 1018.6 |
| 20260507195723 | 41 | 258 | 0.0 | 2.0 | 0.00 | 0.00 | 0.00 | 54 | 1018.5 |
| 20260507194722 | 42 | 258 | 0.0 | 2.0 | 0.00 | 0.00 | 0.00 | 53 | 1018.4 |
| 20260507193722 | 43 | 258 | 0.0 | 4.0 | 0.00 | 0.00 | 0.00 | 52 | 1018.3 |
| 20260507192723 | 44 | 221 | 0.0 | 1.0 | 0.00 | 0.00 | 0.00 | 50 | 1018.1 |
| 20260507191722 | 45 | 221 | 0.0 | 1.0 | 0.00 | 0.00 | 0.00 | 47 | 1017.9 |
| 20260507190722 | 46 | 221 | 0.0 | 1.0 | 0.00 | 0.00 | 0.00 | 44 | 1017.9 |
| 20260507185721 | 48 | 221 | 0.0 | 2.0 | 0.00 | 0.00 | 0.00 | 42 | 1017.6 |
| 20260507184721 | 49 | 221 | 0.0 | 2.0 | 0.00 | 0.00 | 0.00 | 40 | 1017.6 |
| 20260507183720 | 50 | 227 | 0.0 | 3.0 | 0.00 | 0.00 | 0.00 | 36 | 1017.5 |
| 20260507182721 | 51 | 82 | 1.0 | 6.0 | 0.00 | 0.00 | 0.00 | 35 | 1017.4 |
| 20260507181720 | 51 | 94 | 3.0 | 6.0 | 0.00 | 0.00 | 0.00 | 35 | 1017.2 |
| 20260507180721 | 52 | 265 | 2.0 | 7.0 | 0.00 | 0.00 | 0.00 | 34 | 1017.1 |
| 20260507175720 | 52 | 269 | 6.0 | 10.0 | 0.00 | 0.00 | 0.00 | 32 | 1016.9 |
| 20260507174720 | 52 | 220 | 4.0 | 9.0 | 0.00 | 0.00 | 0.00 | 31 | 1016.8 |
| 20260507173719 | 53 | 168 | 2.0 | 7.0 | 0.00 | 0.00 | 0.00 | 31 | 1016.5 |
| 20260507172720 | 53 | 241 | 1.0 | 9.0 | 0.00 | 0.00 | 0.00 | 30 | 1016.5 |
| 20260507171719 | 53 | 209 | 1.0 | 9.0 | 0.00 | 0.00 | 0.00 | 30 | 1016.4 |
| 20260507170719 | 53 | 197 | 2.0 | 10.0 | 0.00 | 0.00 | 0.00 | 29 | 1016.4 |
| 20260507165719 | 54 | 240 | 3.0 | 12.0 | 0.00 | 0.00 | 0.00 | 28 | 1016.3 |
| 20260507164719 | 55 | 282 | 3.0 | 12.0 | 0.00 | 0.00 | 0.00 | 28 | 1016.2 |
| 20260507163718 | 56 | 180 | 4.0 | 10.0 | 0.00 | 0.00 | 0.00 | 27 | 1016.0 |
| 20260507162719 | 56 | 106 | 3.0 | 11.0 | 0.00 | 0.00 | 0.00 | 26 | 1015.8 |
| 20260507161614 | 58 | 55 | 6.0 | 12.0 | 0.00 | 0.00 | 0.00 | 25 | 1015.8 |
| 20260507160614 | 59 | 111 | 4.0 | 13.0 | 0.00 | 0.00 | 0.00 | 25 | 1015.5 |
| 20260507155614 | 60 | 230 | 2.0 | 6.0 | 0.00 | 0.00 | 0.00 | 24 | 1015.4 |
| 20260507154613 | 60 | 248 | 2.0 | 7.0 | 0.00 | 0.00 | 0.00 | 24 | 1015.2 |
| 20260507153613 | 60 | 189 | 4.0 | 7.0 | 0.00 | 0.00 | 0.00 | 23 | 1015.1 |
| 20260507152613 | 60 | 241 | 3.0 | 7.0 | 0.00 | 0.00 | 0.00 | 22 | 1015.2 |
| 20260507151611 | 61 | 283 | 4.0 | 11.0 | 0.00 | 0.00 | 0.00 | 23 | 1015.1 |
| 20260507150612 | 61 | 106 | 2.0 | 10.0 | 0.00 | 0.00 | 0.00 | 22 | 1015.0 |
| 20260507145611 | 62 | 86 | 3.0 | 10.0 | 0.00 | 0.00 | 0.00 | 23 | 1015.1 |
| 20260507144612 | 61 | 226 | 5.0 | 10.0 | 0.00 | 0.00 | 0.00 | 22 | 1014.9 |
| 20260507143611 | 61 | 216 | 6.0 | 12.0 | 0.00 | 0.00 | 0.00 | 20 | 1015.0 |
| 20260507142612 | 62 | 219 | 1.0 | 10.0 | 0.00 | 0.00 | 0.00 | 21 | 1014.9 |
| 20260507141612 | 62 | 221 | 5.0 | 9.0 | 0.00 | 0.00 | 0.00 | 21 | 1014.9 |
| 20260507140612 | 62 | 254 | 3.0 | 7.0 | 0.00 | 0.00 | 0.00 | 21 | 1014.9 |
| 20260507135611 | 62 | 59 | 3.0 | 6.0 | 0.00 | 0.00 | 0.00 | 22 | 1014.9 |
| 20260507134611 | 62 | 197 | 5.0 | 10.0 | 0.00 | 0.00 | 0.00 | 21 | 1014.9 |
| 20260507133610 | 61 | 193 | 4.0 | 9.0 | 0.00 | 0.00 | 0.00 | 20 | 1014.8 |
| 20260507132610 | 61 | 283 | 1.0 | 4.0 | 0.00 | 0.00 | 0.00 | 21 | 1014.9 |
| 20260507131609 | 61 | 179 | 2.0 | 7.0 | 0.00 | 0.00 | 0.00 | 22 | 1014.9 |
| 20260507130609 | 61 | 116 | 4.0 | 9.0 | 0.00 | 0.00 | 0.00 | 22 | 1014.9 |
| 20260507125609 | 61 | 220 | 2.0 | 9.0 | 0.00 | 0.00 | 0.00 | 23 | 1015.0 |
| 20260507124608 | 60 | 214 | 7.0 | 12.0 | 0.00 | 0.00 | 0.00 | 21 | 1014.9 |
| 20260507123609 | 61 | 289 | 4.0 | 11.0 | 0.00 | 0.00 | 0.00 | 25 | 1015.0 |
| 20260507122608 | 60 | 113 | 3.0 | 7.0 | 0.00 | 0.00 | 0.00 | 22 | 1014.9 |
| 20260507121608 | 60 | 56 | 1.0 | 10.0 | 0.00 | 0.00 | 0.00 | 23 | 1014.9 |
| 20260507120608 | 60 | 206 | 3.0 | 10.0 | 0.00 | 0.00 | 0.00 | 24 | 1014.9 |
| 20260507115607 | 60 | 288 | 3.0 | 5.0 | 0.00 | 0.00 | 0.00 | 23 | 1014.9 |
| 20260507114608 | 60 | 195 | 4.0 | 6.0 | 0.00 | 0.00 | 0.00 | 23 | 1014.9 |
| 20260507113609 | 59 | 216 | 4.0 | 9.0 | 0.00 | 0.00 | 0.00 | 26 | 1014.9 |
| 20260507112607 | 59 | 154 | 2.0 | 6.0 | 0.00 | 0.00 | 0.00 | 23 | 1015.0 |
| 20260507111607 | 59 | 151 | 2.0 | 11.0 | 0.00 | 0.00 | 0.00 | 26 | 1015.0 |
| 20260507110606 | 58 | 155 | 1.0 | 9.0 | 0.00 | 0.00 | 0.00 | 23 | 1015.0 |
| 20260507105606 | 59 | 272 | 2.0 | 9.0 | 0.00 | 0.00 | 0.00 | 24 | 1015.1 |
| 20260507104606 | 58 | 217 | 4.0 | 11.0 | 0.00 | 0.00 | 0.00 | 26 | 1015.1 |
| 20260507103606 | 58 | 269 | 6.0 | 12.0 | 0.00 | 0.00 | 0.00 | 26 | 1015.0 |
| 20260507102605 | 58 | 258 | 4.0 | 7.0 | 0.00 | 0.00 | 0.00 | 24 | 1015.0 |
| 20260507101605 | 58 | 237 | 3.0 | 6.0 | 0.00 | 0.00 | 0.00 | 26 | 1015.0 |
| 20260507100605 | 58 | 266 | 3.0 | 10.0 | 0.00 | 0.00 | 0.00 | 26 | 1015.0 |
| 20260507095605 | 58 | 116 | 4.0 | 5.0 | 0.00 | 0.00 | 0.00 | 24 | 1015.0 |
| 20260507094616 | 57 | 206 | 3.0 | 7.0 | 0.00 | 0.00 | 0.00 | 26 | 1015.0 |
| 20260507093604 | 57 | 86 | 2.0 | 6.0 | 0.00 | 0.00 | 0.00 | 24 | 1015.0 |
| 20260507092603 | 56 | 220 | 2.0 | 7.0 | 0.00 | 0.00 | 0.00 | 26 | 1015.0 |
| 20260507091604 | 56 | 214 | 2.0 | 9.0 | 0.00 | 0.00 | 0.00 | 24 | 1015.0 |
| 20260507090603 | 56 | 252 | 1.0 | 6.0 | 0.00 | 0.00 | 0.00 | 27 | 1015.1 |
| 20260507085603 | 55 | 159 | 4.0 | 9.0 | 0.00 | 0.00 | 0.00 | 27 | 1015.1 |